Location: Unspecified
(43.3830°N, 0.0000°E)
Time: 14:09:19
(UTC+00:00)

Vanguard 2 - Pass Details

Date: 22 June 2019
Orbit: 553 x 2938 km, 32.9° (Epoch: 17 August)

Event Time Altitude Azimuth Distance (km) Brightness Sun altitude
Rises 12:05:32 0° 264° (W) 4,057 11.3 70.0°
Reaches altitude 10° 12:08:08 10° 256° (WSW) 3,366 11.0 70.0°
Maximum altitude 12:16:08 38° 192° (SSW) 2,577 11.4 69.8°
Drops below altitude 10° 12:28:24 10° 133° (SE) 5,143 12.0 69.3°
Sets 12:33:28 0° 126° (SE) 6,438 12.3 69.0°
